This demonstration page uses our WeatherBlox Daily Observations layout. Learn more.

Left ArrowRight Arrow

39.01783, -85.05884

Hourly Observations for April 30, 2020

Temp ( °F °C ) Dew Point ( °F °C ) Humidity (%) Winds ( mph kmh ) Pressure ( in mb ) Visibility ( mi km ) Precip ( " mm )
12:52 am 00:52 Cloudy with Rain 50 10 48 8.9 93 93 S 7 11 29.65 1004 3 4 0.05 1.27
12:57 am 00:57 Cloudy with Light Rain 50 10 48 8.9 93 93 SSW 7 11 29.67 1005 4 6 0.02 0.51
1:52 am 01:52 Cloudy with Light Rain 50 10 48 8.9 93 93 SW 8 13 29.63 1004 4 6 0.04 1.02
2:09 am 02:09 Cloudy 51 10.6 48 8.9 89 89 SSW 6 9 29.65 1004 10 16 0.00 0.00
2:52 am 02:52 Cloudy with Light Rain 51 10.6 47 8.3 86 86 WSW 9 15 29.60 1002 8 13 0.01 0.25
3:09 am 03:09 Cloudy 50 10 47 8.3 89 89 WSW 9 15 29.62 1003 10 16 0.00 0.00
3:20 am 03:20 Cloudy 50 10 46 7.8 86 86 SW 10 17 29.61 1003 10 16 0.00 0.00
3:52 am 03:52 Cloudy 49 9.4 45 7.2 86 86 SW 9 15 29.59 1002 10 16 0.00 0.00
4:34 am 04:34 Cloudy 48 8.9 44 6.7 86 86 SW 10 17 29.62 1003 10 16 N/A
4:52 am 04:52 Cloudy 48 8.9 44 6.7 86 86 SSW 9 15 29.60 1002 10 16 N/A
5:07 am 05:07 Cloudy 48 8.9 45 7.2 89 89 SW 10 17 29.62 1003 10 16 N/A
5:47 am 05:47 Cloudy 48 9 45 7 87 87 SW 12 19 29.62 1003 10 16 N/A
5:49 am 05:49 Cloudy 48 9 45 7 87 87 SW 12 19 29.62 1003 10 16 N/A
5:52 am 05:52 Cloudy 48 8.9 45 7.2 89 89 SW 12 19 29.60 1003 10 16 N/A
6:39 am 06:39 Cloudy with Light Rain 46 7.8 43 6.1 89 89 W 15 24 29.65 1004 3 4 0.00 0.00
6:47 am 06:47 Cloudy with Mist and Fog 46 8 43 6 87 87 W 10 17 29.65 1004 6 10 0.00 0.00
6:52 am 06:52 Cloudy 46 7.8 43 6.1 89 89 W 10 17 29.63 1003 10 16 0.00 0.00
7:15 am 07:15 Cloudy with Light Rain 46 7.8 43 6.1 89 89 WSW 16 26 29.66 1004 5 8 0.00 0.00
7:52 am 07:52 Cloudy 45 7.2 41 5 86 86 W 15 24 29.65 1004 10 16 0.00 0.00
8:14 am 08:14 Cloudy 46 7.8 41 5 83 83 W 10 17 29.68 1005 10 16 N/A
8:44 am 08:44 Cloudy 46 7.8 41 5 83 83 WSW 10 17 29.69 1005 10 16 N/A
8:52 am 08:52 Cloudy 46 7.8 41 5 83 83 WSW 10 17 29.66 1005 10 16 N/A
9:52 am 09:52 Cloudy 47 8.3 41 5 80 80 SW 10 17 29.66 1005 10 16 N/A
10:23 am 10:23 Cloudy with Light Rain 47 8.3 41 5 80 80 W 10 17 29.70 1006 8 13 0.00 0.00
10:45 am 10:45 Cloudy 48 8.9 41 5 77 77 W 15 24 29.69 1006 10 16 0.00 0.00
10:52 am 10:52 Cloudy 48 8.9 41 5 77 77 W 13 20 29.67 1005 10 16 0.00 0.00
11:33 am 11:33 Cloudy 48 8.9 42 5.6 80 80 WSW 13 20 29.70 1006 10 16 N/A
11:52 am 11:52 Cloudy with Light Rain 51 10.6 43 6.1 74 74 W 14 22 29.69 1005 10 16 0.00 0.00
12:47 pm 12:47 Cloudy with Light Rain 48 9 41 5 76 76 W 10 17 29.72 1007 10 16 0.00 0.00
12:52 pm 12:52 Cloudy with Light Rain 49 9.4 41 5 74 74 W 13 20 29.70 1006 9 14 0.00 0.00
1:36 pm 13:36 Cloudy 49 9.4 41 5 74 74 W 16 26 29.73 1007 10 16 0.00 0.00
1:52 pm 13:52 Cloudy 49 9.4 40 4.4 71 71 W 16 26 29.72 1006 10 16 0.00 0.00
2:17 pm 14:17 Cloudy with Light Rain 48 8.9 40 4.4 74 74 W 15 24 29.74 1007 10 16 0.00 0.00
2:52 pm 14:52 Cloudy 50 10 41 5 71 71 W 17 28 29.72 1007 10 16 0.00 0.00
3:52 pm 15:52 Cloudy 49 9.4 40 4.4 71 71 W 18 30 29.75 1007 10 16 N/A
4:52 pm 16:52 Cloudy 49 9.4 38 3.3 66 66 WNW 20 31 29.76 1008 10 16 N/A
5:52 pm 17:52 Cloudy 48 8.9 38 3.3 68 68 WNW 16 26 29.78 1008 10 16 N/A
6:52 pm 18:52 Cloudy 48 8.9 39 3.9 71 71 WNW 18 30 29.80 1009 10 16 N/A
7:52 pm 19:52 Cloudy 48 8.9 39 3.9 71 71 WNW 21 33 29.80 1009 10 16 N/A
8:52 pm 20:52 Cloudy 47 8.3 39 3.9 74 74 W 14 22 29.82 1010 10 16 N/A
9:52 pm 21:52 Cloudy 47 8.3 40 4.4 77 77 W 14 22 29.83 1010 10 16 N/A
10:52 pm 22:52 Cloudy 47 8.3 40 4.4 77 77 W 10 17 29.83 1010 10 16 N/A
11:52 pm 23:52 Cloudy 47 8.3 39 3.9 74 74 WNW 13 20 29.83 1010 10 16 N/A

Powered by AerisWeather